Volver al catálogo

STARLINK-11510

ActivoComunicacionesVLEO
NORAD 62516·PAYLOAD·🇺🇸 United States

Lanzado Jan 8, 2025 desde Cape Canaveral Space Force Station

Loading…

Próximos Pases (próximas 24 horas)

TLE

ActualizadoSource: CelesTrak SupGP

Época: Sep 15, 2026, 02:37 UTC

1 62516C 25004F   26258.10951389 -.00089703  00000+0 -69677-3 0  2584
2 62516  43.0009   9.2360 0001778 267.7459 190.3323 15.70880685    11

Sigue STARLINK-11510 en tiempo real con AllMySat

Download on the App Store